• Join FlightAware (Why Join?)
  • Login
  • US Flag 
Rudolph Flight #1: Arrived! 
03:27PM EST


 

Airport Tracker/Info


-or-


 

Live Flight TrackerFlight Track Log ✈ AAY876 ✈ 25-Mar-2014 ✈ KPIE - KRFD

Flight Track Log - Related Links

Times and Time Zones

All times are in EDT time to prevent confusion due to time zone crossing. See the AAY876 flight status page for this flight to view local times or setup timezone preferences in your user account.

Time Position Orientation Groundspeed Altitude Reporting Facility
EDT Latitude Longitude Course Direction KTS MPH feet Rate Location/Type
02:48PM 27.9167 -82.6833 350° North 146 168 700  Level Tampa TRACON
02:49PM 27.9833 -82.6667 12° North 202 232 2,800 1,920 Climbing Tampa TRACON
02:50PM 28.0333 -82.6833 344° North 256 295 4,800 1,740 Climbing Tampa TRACON
02:51PM 28.1167 -82.6833 360° North 267 307 6,300 1,980 Climbing Tampa TRACON
02:52PM 28.5085 -82.8105 348° North  Level FlightAware Approximate
02:53PM 28.6100 -82.8320 350° North  Level FlightAware Approximate
02:54PM 28.3731 -82.7392 349° North 329 379 13,300  Level Jacksonville Center
02:55PM 28.4711 -82.7628 348° North 340 391 16,100 2,520 Climbing Jacksonville Center
02:56PM 28.5653 -82.7861 348° North 340 391 18,400 2,100 Climbing Jacksonville Center
02:57PM 28.6653 -82.8122 347° North 350 403 20,300 1,680 Climbing Jacksonville Center
02:58PM 28.7550 -82.8333 348° North 356 410 21,800 1,800 Climbing Jacksonville Center
02:59PM 28.8553 -82.8736 341° North 366 421 24,000 1,860 Climbing Jacksonville Center
03:00PM 28.9556 -82.9117 342° North 371 427 25,600 1,560 Climbing Jacksonville Center
03:01PM 29.0578 -82.9519 341° North 376 433 27,200 1,320 Climbing Jacksonville Center
03:02PM 29.1600 -82.9947 340° North 381 438 28,300 1,200 Climbing Jacksonville Center
03:03PM 29.2664 -83.0353 342° North 391 450 29,600 840 Climbing Jacksonville Center
03:04PM 29.3728 -83.0783 341° North 396 456 30,000 180 Climbing Jacksonville Center
03:05PM 29.4939 -83.1311 339° North 409 471 30,000  Level Jacksonville Center
03:06PM 29.6003 -83.1719 342° North 408 470 30,000  Level Jacksonville Center
03:07PM 29.7086 -83.2153 341° North 408 470 30,000  Level Jacksonville Center
03:08PM 29.8150 -83.2589 340° North 408 470 30,000  Level Jacksonville Center
03:09PM 29.9256 -83.3025 341° North 408 470 30,000  Level Jacksonville Center
03:10PM 30.0297 -83.3436 341° North 408 470 30,000 300 Level Jacksonville Center
03:11PM 30.1383 -83.3875 341° North 408 470 30,600 780 Climbing Jacksonville Center
03:12PM 30.2486 -83.4311 341° North 408 470 31,600 1,140 Climbing Jacksonville Center
03:13PM 30.3550 -83.4750 340° North 408 470 32,900 1,140 Climbing Jacksonville Center
03:14PM 30.4611 -83.5192 340° North 408 470 33,900 1,020 Climbing Jacksonville Center
03:15PM 30.5656 -83.5608 341° North 408 470 35,000 960 Climbing Jacksonville Center
03:16PM 30.6550 -83.5978 340° North 396 456 35,900 480 Climbing Jacksonville Center
03:17PM 30.7572 -83.6394 341° North 390 449 36,000  Climbing Jacksonville Center
03:18PM 30.8611 -83.6839 340° North 390 449 36,000  Level Jacksonville Center
03:19PM 30.9592 -83.7236 341° North 385 443 36,000  Level Jacksonville Center
03:20PM 31.0611 -83.7656 341° North 385 443 36,000  Level Jacksonville Center
03:21PM 31.1611 -83.8078 340° North 385 443 36,000  Level Jacksonville Center
03:22PM 31.2608 -83.8500 340° North 385 443 36,000  Level Jacksonville Center
03:24PM 31.4919 -83.9489 340° North 398 458 36,100  Climbing Atlanta Center
03:25PM 31.6006 -83.9778 347° North 393 452 36,000 -60 Descending Atlanta Center
03:26PM 31.7092 -84.0022 349° North 393 452 36,000  Level Atlanta Center
03:27PM 31.8217 -84.0267 350° North 393 452 36,000  Level Atlanta Center
03:28PM 31.9408 -84.0511 350° North 393 452 36,100  Climbing Atlanta Center
03:29PM 32.0492 -84.0756 349° North 393 452 36,000 -60 Descending Atlanta Center
03:30PM 32.1536 -84.1003 349° North 388 447 36,000  Level Atlanta Center
03:31PM 32.2622 -84.1247 349° North 393 452 36,000  Level Atlanta Center
03:32PM 32.3686 -84.1494 349° North 393 452 36,000  Level Atlanta Center
03:33PM 32.4769 -84.1719 350° North 393 452 36,000  Level Atlanta Center
03:34PM 32.5836 -84.1967 349° North 393 452 36,000  Level Atlanta Center
03:35PM 32.6919 -84.2214 349° North 393 452 36,000  Level Atlanta Center
03:36PM 32.7797 -84.2414 349° North 393 452 36,000  Level Atlanta Center
03:37PM 32.9006 -84.2739 347° North 393 452 36,000  Level Atlanta Center
03:38PM 33.0092 -84.2989 349° North 393 452 36,000 -60 Level Atlanta Center
03:39PM 33.1156 -84.3242 349° North 388 447 35,900  Descending Atlanta Center
03:40PM 33.2197 -84.3467 350° North 388 447 36,000  Climbing Atlanta Center
03:41PM 33.3261 -84.3694 350° North 388 447 36,000  Level Atlanta Center
03:46PM 33.9247 -84.5066 348° North 394 453 36,100  Climbing FlightAware ADS-B (KDZJ)
03:47PM 34.0000 -84.5249 349° North 396 456 36,100 -120 Level FlightAware ADS-B (KDZJ)
03:47PM 34.0752 -84.5431 348° North 397 457 36,000 -120 Descending FlightAware ADS-B (KDZJ)
03:48PM 34.1484 -84.5609 348° North 397 457 36,000  Level FlightAware ADS-B (KDZJ)
03:49PM 34.2235 -84.5793 348° North 408 470 36,000  Level FlightAware ADS-B (KDZJ)
03:49PM 34.2979 -84.5976 348° North 409 471 36,000  Level FlightAware ADS-B (KDZJ)
03:50PM 34.3744 -84.6162 349° North 410 472 36,000 60 Level FlightAware ADS-B (KDZJ)
03:51PM 34.4495 -84.6343 349° North 410 472 36,100 60 Climbing FlightAware ADS-B (KDZJ)
03:51PM 34.5247 -84.6527 348° North 409 471 36,100 -60 Level FlightAware ADS-B (KDZJ)
03:52PM 34.6386 -84.6808 348° North 412 474 36,000 -60 Descending FlightAware ADS-B (KDZJ)
03:53PM 34.7133 -84.6994 349° North 409 471 36,000  Level FlightAware ADS-B (KDZJ)
03:54PM 34.7884 -84.7180 349° North 407 468 36,000  Level FlightAware ADS-B (KDZJ)
03:54PM 34.8619 -84.7363 348° North 399 459 36,000 60 Level FlightAware ADS-B (KDZJ)
03:55PM 34.9338 -84.7540 348° North 393 452 36,100  Climbing FlightAware ADS-B (KDZJ)
03:56PM 35.0070 -84.7722 348° North 397 457 36,000  Descending FlightAware ADS-B (KDZJ)
03:56PM 35.0783 -84.7901 348° North 393 452 36,100  Climbing FlightAware ADS-B (KDZJ)
03:58PM 35.2059 -84.8222 348° North 391 450 36,000 -60 Descending FlightAware ADS-B (KMDQ)
03:59PM 35.2707 -84.8387 348° North 392 451 36,000  Level FlightAware ADS-B (KMDQ)
04:00PM 35.3439 -84.8571 349° North 392 451 36,000  Level FlightAware ADS-B (KMDQ)
04:00PM 35.4182 -84.8759 348° North 393 452 36,000  Level FlightAware ADS-B (KMDQ)
04:01PM 35.4768 -84.8907 348° North 394 453 36,000  Level FlightAware ADS-B (KMDQ)
04:02PM 35.5980 -84.9213 348° North 393 452 36,000  Level FlightAware ADS-B (KMDQ)
04:03PM 35.6623 -84.9376 348° North 397 457 36,000 60 Level FlightAware ADS-B (KMDQ)
04:03PM 35.7299 -84.9547 349° North 398 458 36,100 60 Climbing FlightAware ADS-B (KMDQ)
04:04PM 35.8111 -84.9755 348° North 396 456 36,100 -60 Level FlightAware ADS-B (KMDQ)
04:05PM 35.9003 -84.9983 348° North 396 456 36,000 -60 Descending FlightAware ADS-B (KMDQ)
04:06PM 35.9880 -85.0206 348° North 397 457 36,000  Level FlightAware ADS-B (KMDQ)
04:06PM 36.0404 -85.0341 348° North 398 458 36,000  Level FlightAware ADS-B (KMDQ)
04:07PM 36.1378 -85.0587 348° North 399 459 36,000  Level FlightAware ADS-B (KMDQ)
04:08PM 36.2027 -85.0755 348° North 401 461 36,000  Level FlightAware ADS-B (KMDQ)
04:08PM 36.2808 -85.0956 348° North 403 464 36,000  Level FlightAware ADS-B (KMDQ)
04:09PM 36.3553 -85.1149 348° North 404 465 36,000  Level FlightAware ADS-B (KMDQ)
04:10PM 36.4298 -85.1339 348° North 404 465 36,000  Level FlightAware ADS-B (KMDQ)
04:10PM 36.4958 -85.1511 348° North 403 464 36,000  Level FlightAware ADS-B (KMDQ)
04:11PM 36.5140 -85.1558 348° North 403 464 36,000  Level FlightAware ADS-B (KMDQ)
04:12PM 36.6464 -85.1902 348° North 402 463 36,000 60 Level FlightAware ADS-B (EPWR / WRO)
04:12PM 36.7169 -85.2087 348° North 400 460 36,100  Climbing FlightAware ADS-B (EPWR / WRO)
04:13PM 36.7978 -85.2299 348° North 398 458 36,000 -120 Descending FlightAware ADS-B (EPWR / WRO)
04:14PM 36.8467 -85.2427 348° North 397 457 36,000  Level FlightAware ADS-B (EPWR / WRO)
04:14PM 36.9070 -85.2586 348° North 397 457 36,000  Level FlightAware ADS-B (EPWR / WRO)
04:15PM 36.9878 -85.2798 348° North 396 456 36,000  Level FlightAware ADS-B (EPWR / WRO)
04:15PM 37.0358 -85.2922 348° North 398 458 36,000  Level FlightAware ADS-B (EPWR / WRO)
04:16PM 37.0890 -85.3062 348° North 399 459 36,000  Level FlightAware ADS-B (EPWR / WRO)
04:16PM 37.1488 -85.3218 348° North 400 460 36,000  Level FlightAware ADS-B (EPWR / WRO)
04:17PM 37.2597 -85.3511 348° North 404 465 36,000  Level FlightAware ADS-B (EPWR / WRO)
04:18PM 37.3171 -85.3663 348° North 405 466 36,000 60 Level FlightAware ADS-B (EPWR / WRO)
04:19PM 37.3986 -85.3883 348° North 404 465 36,100 60 Climbing FlightAware ADS-B (EPWR / WRO)
04:19PM 37.4711 -85.4075 349° North 400 460 36,100  Level FlightAware ADS-B (EPWR / WRO)
04:20PM 37.5549 -85.4293 348° North 397 457 36,100 -120 Level FlightAware ADS-B
04:21PM 37.6170 -85.4461 348° North 395 455 36,000 -120 Descending FlightAware ADS-B (EPWR / WRO)
04:21PM 37.6700 -85.4604 348° North 394 453 36,000  Level FlightAware ADS-B (EPWR / WRO)
04:22PM 37.7443 -85.4804 348° North 393 452 36,000  Level FlightAware ADS-B (EPWR / WRO)
04:22PM 37.8027 -85.4962 348° North 392 451 36,000  Level FlightAware ADS-B (EPWR / WRO)
04:23PM 37.8563 -85.5106 348° North 393 452 36,000  Level FlightAware ADS-B (EPWR / WRO)
04:24PM 37.9334 -85.5314 348° North 393 452 36,000  Level FlightAware ADS-B (EPWR / WRO)
04:24PM 37.9897 -85.5463 348° North 395 455 36,000  Level FlightAware ADS-B (EPWR / WRO)
04:25PM 38.0431 -85.5609 348° North 395 455 36,000  Level FlightAware ADS-B (EPWR / WRO)
04:25PM 38.1200 -85.5880 339° North 387 445 36,000  Level FlightAware ADS-B (EPWR / WRO)
04:26PM 38.1705 -85.6165 335° Northwest 383 441 36,000  Level FlightAware ADS-B (EPWR / WRO)
04:26PM 38.2191 -85.6452 335° Northwest 383 441 36,000  Level FlightAware ADS-B (EPWR / WRO)
04:27PM 38.2445 -85.6600 335° Northwest 383 441 36,000  Level FlightAware ADS-B (EPWR / WRO)
04:28PM 38.3821 -85.7408 335° Northwest 383 441 36,000  Level FlightAware ADS-B
04:29PM 38.4784 -85.7978 335° Northwest 383 441 36,000  Level FlightAware ADS-B
04:30PM 38.5712 -85.8528 335° Northwest 383 441 36,000  Level FlightAware ADS-B
04:31PM 38.6680 -85.9105 335° Northwest 385 443 36,000  Level FlightAware ADS-B
04:32PM 38.7705 -85.9717 335° Northwest 387 445 36,000  Level FlightAware ADS-B
04:33PM 38.8644 -86.0279 335° Northwest 387 445 36,000  Level FlightAware ADS-B
04:34PM 38.9291 -86.0668 335° Northwest 388 447 36,000  Level FlightAware ADS-B
04:35PM 39.0548 -86.1422 335° Northwest 388 447 36,000  Level FlightAware ADS-B
04:36PM 39.1480 -86.1984 335° Northwest 387 445 36,000  Level FlightAware ADS-B
04:37PM 39.2492 -86.2596 335° Northwest 383 441 36,000  Level FlightAware ADS-B
04:38PM 39.2234 -86.2440 335° Northwest 384 442 36,000  Level FlightAware ADS-B
04:38PM 39.1480 -86.1984 335° Northwest 383 441 36,000  Level FlightAware ADS-B
04:39PM 39.2234 -86.2440 335° Northwest 382 440 36,000  Level FlightAware ADS-B
04:42PM 39.2234 -86.2440 329° Northwest 378 435 36,000  Level FlightAware ADS-B
04:47PM 40.1337 -86.9395 324° Northwest 380 437 36,000  Level FlightAware ADS-B (KMDW)
04:48PM 40.2058 -87.0081 324° Northwest 380 437 36,000  Level FlightAware ADS-B (KMDW)
04:48PM 40.2451 -87.0456 324° Northwest 379 436 36,000  Level FlightAware ADS-B
04:49PM 40.3146 -87.1118 324° Northwest 378 435 36,000  Level FlightAware ADS-B (KMDW)
04:50PM 40.3687 -87.1638 324° Northwest 377 434 36,000  Level FlightAware ADS-B
04:50PM 40.4167 -87.2096 324° Northwest 374 430 36,000  Level FlightAware ADS-B (KMDW)
04:51PM 40.4744 -87.2651 324° Northwest 373 429 36,000  Level FlightAware ADS-B (KMDW)
04:51PM 40.5173 -87.3066 324° Northwest 371 427 36,000 -120 Level FlightAware ADS-B (KMDW)
04:52PM 40.5476 -87.3357 324° Northwest 371 427 35,900 -480 Descending FlightAware ADS-B
04:52PM 40.6131 -87.3987 324° Northwest 371 427 35,500 -780 Descending FlightAware ADS-B (KMDW)
04:53PM 40.6533 -87.4376 324° Northwest 369 425 35,100 -900 Descending FlightAware ADS-B (KMDW)
04:53PM 40.6947 -87.4777 324° Northwest 370 426 34,600 -1,020 Descending FlightAware ADS-B (KMDW)
04:54PM 40.7371 -87.5189 323° Northwest 366 421 34,100 -1,020 Descending FlightAware ADS-B (KMDW)
04:54PM 40.7720 -87.5529 324° Northwest 365 420 33,600 -1,020 Descending FlightAware ADS-B (KMDW)
04:55PM 40.8185 -87.5984 324° Northwest 359 413 33,100 -1,020 Descending FlightAware ADS-B (KMDW)
04:56PM 40.8680 -87.6466 323° Northwest 357 411 32,500 -1,020 Descending FlightAware ADS-B
04:56PM 40.8785 -87.6569 323° Northwest 357 411 32,000 -960 Descending FlightAware ADS-B
04:57PM 40.9504 -87.7275 324° Northwest 351 404 31,500 -1,020 Descending FlightAware ADS-B (KMDW)
04:57PM 40.9895 -87.7658 324° Northwest 345 397 31,000 -960 Descending FlightAware ADS-B (KMDW)
04:58PM 41.0404 -87.8155 323° Northwest 334 384 30,400 -1,020 Descending FlightAware ADS-B (KMDW)
04:58PM 41.0889 -87.8633 323° Northwest 328 377 29,700 -1,200 Descending FlightAware ADS-B (KMDW)
04:59PM 41.1246 -87.8987 323° Northwest 323 372 29,000 -1,200 Descending FlightAware ADS-B (KMDW)
04:59PM 41.1619 -87.9358 323° Northwest 324 373 28,500 -1,020 Descending FlightAware ADS-B (KMDW)
05:00PM 41.1967 -87.9702 323° Northwest 320 368 28,000 -960 Descending FlightAware ADS-B (KMDW)
05:00PM 41.2215 -88.0141 295° West 324 373 27,600 -900 Descending FlightAware ADS-B (KMDW)
05:01PM 41.2309 -88.0397 297° West 320 368 27,100 -1,020 Descending FlightAware ADS-B (KPWK)
05:02PM 41.2695 -88.1418 297° West 316 364 26,400 -960 Descending FlightAware ADS-B (KMDW)
05:02PM 41.2892 -88.1932 297° West 314 361 26,000 -960 Descending FlightAware ADS-B (KMDW)
05:03PM 41.3153 -88.2618 297° West 307 353 25,300 -1,020 Descending FlightAware ADS-B (KMDW)
05:03PM 41.3402 -88.3276 297° West 306 352 24,700 -1,020 Descending FlightAware ADS-B (KMDW)
05:04PM 41.3644 -88.3917 297° West 301 346 24,000 -1,020 Descending FlightAware ADS-B (KMDW)
05:05PM 41.3846 -88.4453 297° West 297 342 23,500 -960 Descending FlightAware ADS-B (KMDW)
05:05PM 41.4039 -88.4967 297° West 296 341 22,900 -1,020 Descending FlightAware ADS-B (KMDW)
05:06PM 41.4324 -88.5727 296° West 291 335 22,200 -960 Descending FlightAware ADS-B (KMDW)
05:07PM 41.4574 -88.6390 297° West 308 354 21,700 -2,160 Descending FlightAware ADS-B (KMDW)
05:07PM 41.4725 -88.6792 297° West 327 376 19,500 -3,780 Descending FlightAware ADS-B (KPWK)
05:08PM 41.5032 -88.7614 296° West 333 383 17,300 -3,600 Descending FlightAware ADS-B (KMDW)
05:08PM 41.5256 -88.8218 296° West 339 390 15,600 -2,040 Descending FlightAware ADS-B (KMDW)
05:09PM 41.5407 -88.8631 296° West 329 379 15,200 -1,080 Descending FlightAware ADS-B (KMDW)
05:09PM 41.5680 -88.9369 296° West 299 344 14,500 -1,260 Descending FlightAware ADS-B (KPWK)
05:10PM 41.5882 -88.9918 296° West 259 298 13,800 -1,200 Descending FlightAware ADS-B (KPWK)
05:11PM 41.6093 -89.0487 296° West 252 290 13,000 -780 Descending FlightAware ADS-B (KMDW)
05:11PM 41.6294 -89.1033 296° West 255 293 12,800 -180 Descending FlightAware ADS-B (KMDW)
05:12PM 41.6559 -89.1750 296° West 236 272 12,800  Level FlightAware ADS-B (KPWK)
05:13PM 41.6338 -89.1151 296° West 219 252 12,800 -1,140 Level FlightAware ADS-B (KMDW)
05:14PM 41.7247 -89.2697 296° West 214 246 10,600 -2,040 Descending Chicago Center
05:15PM 41.7961 -89.2294 23° Northeast 230 265 8,100 -1,740 Descending Chicago Center
05:16PM 41.8478 -89.2028 21° North 207 238 7,100 -1,320 Descending Chicago Center
05:17PM 41.8958 -89.1792 20° North 189 217 5,400 -1,500 Descending Chicago Center
05:18PM 41.9492 -89.1503 22° Northeast 201 231 4,000 -1,140 Descending Chicago Center
05:19PM 41.9989 -89.1228 22° Northeast 201 231 3,100 -660 Descending Chicago Center
05:20PM 42.0464 -89.1086 12° North 193 222 2,700 -300 Descending Chicago Center
05:21PM 42.0928 -89.1017 North 176 203 2,500 -240 Descending Chicago Center
05:23PM 42.1833 -89.0833 20° North  Level FlightAware Approximate
05:30PM 42.1954 -89.0972 20° North  Level Estimated